星链-35468(STARLINK-35468)

导读

STARLINK-35468是美国太空探索技术公司Starlink星座的成员,于2025年10月22日发射升空。该卫星属于低轨互联网卫星,旨在为全球提供高速宽带互联网服务,尤其覆盖偏远地区与网络基础设施薄弱区域,助力全球互联。它延续了星链星座批量部署的特点,进一步扩充了星座规模,提升星座服务的覆盖范围与通信容量。

Basic Information
目录编号:
66118
目录名称:
STARLINK-35468
国际标识:
2025-237E
轨道中心:
EARTH
卫星名称:
星链-35468
卫星全名:
星链-35468(STARLINK-35468)
卫星状态:
在轨 (已飞行325 天)
发射日期:
2025-10-22 UTC
国别 :
美国 (US)
星等 :
--
This satellite is enrolled in the Space Conjunction Data Service (SCDS) and the current flight risk assessment level is: No High Risk
Orbit Information
数据来源 国际轨道数据
星历时间: 2026-09-12T14:54:39+0800
6小时前
查看轨道信息
半长轴: 6840.815km
偏心率: 0.0001166
轨道倾角: 53.159°
近地点辐角 99.424°
升交点赤经 251.903°
平近点角 260.689°
近地点: 461.88km
远地点: 463.476km
周期: 93.847分钟
每日圈数: 15.344085
Detailed Information
固有亮度:
5
最大亮度:
2.5
卫星平台:
Starlink V1.0
覆盖范围:
全球
运营商:
太空探索技术公司
运营商所在国:
美国
制造商(研发单位):
太空探索技术公司
制造商所在国:
美国
使用方式:
暂无
Satellite Introduction
Starlink 计划是 SpaceX 推出的全球卫星互联网项目,通过发射低轨道卫星,为全球尤其是偏远地区提供高速、低延迟的互联网服务。自 2019 年起,Starlink 已部署数千颗卫星,旨在缩小全球数字鸿沟,推动互联网普及。该项目还为军事、航空等行业提供通信支持,带来广泛经济效益。
2D Orbit Map
3D Orbit Map
Orbit Altitude Analysis Chart
Orbit Inclination Analysis Chart
Orbit Comprehensive Analysis Chart
View Comprehensive Chart
Conjunction Data List
Event ID Objects TCA Miss Dist (km) Collision Risk Probability Collision Risk Index (CRI) Action
CDM_260909-120806-582606-611821
2026-09-09T
12:08:26+0000
0.167 km
中距离
6.644189E-4 高风险 0.91
CDM_260912-061705-766606-611821
2026-09-12T
06:17:01+0000
2.153 km
极远距离
2.012071E-6 低风险 0.41
CDM_260913-225205-370806-611821
2026-09-13T
22:52:23+0000
2.795 km
极远距离
1.290052E-6 低风险 0.37
CDM_260914-120405-399106-611821
2026-09-14T
12:04:30+0000
2.848 km
极远距离
1.281374E-6 低风险 0.37
CDM_260909-142306-510206-611821
2026-09-09T
14:23:51+0000
1.733 km
极远距离
1.27278E-6 低风险 0.37
CDM_260914-043505-406206-611821
2026-09-14T
04:35:10+0000
2.994 km
极远距离
6.341492E-7 极低风险 0.31
CDM_260909-125006-510206-611821
2026-09-09T
12:50:04+0000
2.684 km
极远距离
5.378031E-7 极低风险 0.3
Miss Distance Evolution Trend with All Objects
Collision Probability Evolution Trend with All Objects